Weather History for Northolt, United Kingdom

Change the Weather History Date:

Thursday, April 17, 2014

  Actual Average Record
Temperature  
Mean Temperature 50 °F -  
Max Temperature 63 °F 59 °F 73 °F (2003)
Min Temperature 38 °F 44 °F 30 °F (2005)
Degree Days  
Heating Degree Days 14    
Moisture  
Dew Point 38 °F    
Average Humidity 59    
Maximum Humidity 87    
Minimum Humidity 24    
Precipitation  
Precipitation 0.00 in - - ()
Sea Level Pressure  
Sea Level Pressure 30.12 in    
Wind  
Wind Speed 5 mph ()    
Max Wind Speed 15 mph    
Max Gust Speed -    
Visibility 11.2 miles    
Events      
Averages and records for this station are not official NWS values.
T = Trace of Precipitation, MM = Missing Value Source: Averaged Metar Reports

Daily Weather History Graph

Daily Weather History Graph

Search for Another Location

Airport:

Trip Planner

Search our weather history database for the weather conditions in past years. The results will help you decide how hot, cold, wet, or windy it might be!

Date:

Astronomy

Apr. 17, 2014 Rise Set
Actual Time 6:01 AM BST 8:01 PM BST
Civil Twilight 5:26 AM BST 8:37 PM BST
Nautical Twilight 4:41 AM BST 9:22 PM BST
Astronomical Twilight 3:51 AM BST 10:13 PM BST
Moon 10:46 PM BST (4/17) 7:11 AM BST (4/17)
Length of Visible Light 15h 11m
Length of Day
13h 59m
Waning Gibbous, 95% of the Moon is Illuminated
Apr 17
Waning Gibbous
Apr 22
Last Quarter
Apr 29
New
May 7
First Quarter
May 14
Full

Hourly Weather History & Observations

Time (BST) Temp. Dew Point Humidity Pressure Visibility Wind Dir Wind Speed Gust Speed Precip Events Conditions
12:00 AM 46 °F 34 °F 52% 30.25 in 17 mi SW 2.3 mph - -  
12:50 AM 41.0 °F 33.8 °F 76% 30.24 in 6.2 mi Calm Calm - N/A   Unknown
1:00 AM 42 °F 35 °F 66% 30.25 in 15 mi Calm Calm - -  
1:50 AM 42.8 °F 33.8 °F 70% 30.21 in 6.2 mi West 2.3 mph - N/A   Unknown
2:00 AM 42 °F 33 °F 61% 30.23 in 14 mi West 2.3 mph - -  
2:50 AM 39.2 °F 33.8 °F 81% 30.21 in 6.2 mi Calm Calm - N/A   Unknown
3:00 AM 39 °F 34 °F 74% 30.22 in 14 mi Calm Calm - -  
3:50 AM 39.2 °F 33.8 °F 81% 30.18 in 6.2 mi Calm Calm - N/A   Mostly Cloudy
4:00 AM 39 °F 34 °F 76% 30.20 in 13 mi Calm Calm - -   Mostly Cloudy
4:50 AM 41.0 °F 37.4 °F 87% 30.15 in 6.2 mi SE 1.2 mph - N/A   Overcast
5:00 AM 41 °F 36 °F 78% 30.17 in 14 mi SE 1.2 mph - -   Overcast
5:50 AM 41.0 °F 35.6 °F 81% 30.15 in 6.2 mi NW 1.2 mph - N/A   Mostly Cloudy
6:00 AM 40 °F 35 °F 78% 30.16 in 14 mi NW 1.2 mph - -   Mostly Cloudy
6:50 AM 41.0 °F 35.6 °F 81% 30.15 in - WNW 2.3 mph - N/A   Clear
7:00 AM 41 °F 36 °F 76% 30.17 in 9 mi WNW 2.3 mph - -   Partly Cloudy
7:50 AM 44.6 °F 37.4 °F 76% 30.15 in - SW 2.3 mph - N/A   Clear
8:00 AM 45 °F 38 °F 69% 30.17 in 9 mi SW 2.3 mph - -   Mostly Cloudy
8:50 AM 50.0 °F 41.0 °F 71% 30.15 in - West 8.1 mph - N/A   Clear
9:00 AM 50 °F 42 °F 64% 30.16 in 9 mi West 8.1 mph - -   Partly Cloudy
9:50 AM 53.6 °F 41.0 °F 62% 30.12 in - West 6.9 mph - N/A   Clear
10:00 AM 54 °F 40 °F 48% 30.14 in 11 mi West 6.9 mph - -   Scattered Clouds
10:50 AM 57.2 °F 39.2 °F 51% 30.12 in - West 9.2 mph - N/A   Clear
11:00 AM 57 °F 38 °F 38% 30.14 in 12 mi West 9.2 mph - -   Scattered Clouds
11:50 AM 59.0 °F 32.0 °F 36% 30.09 in - West 11.5 mph - N/A   Clear
12:00 PM 60 °F 33 °F 24% 30.12 in 19 mi West 11.5 mph - -   Scattered Clouds
12:50 PM 62.6 °F 35.6 °F 37% 30.06 in - West 11.5 mph - N/A   Clear
1:00 PM 62 °F 35 °F 25% 30.08 in 19 mi West 11.5 mph - -   Scattered Clouds
1:50 PM 60.8 °F 37.4 °F 42% 30.06 in - NW 15.0 mph - N/A   Clear
2:00 PM 60 °F 38 °F 32% 30.08 in 19 mi NW 15.0 mph - -   Overcast
2:50 PM 60.8 °F 42.8 °F 52% 30.06 in 6.2 mi NW 11.5 mph - N/A   Overcast
3:00 PM 61 °F 42 °F 38% 30.07 in 19 mi NW 11.5 mph - -   Overcast
3:50 PM 59.0 °F 44.6 °F 59% 30.06 in 6.2 mi NW 12.7 mph - N/A   Overcast
4:00 PM 59 °F 44 °F 47% 30.07 in 16 mi NW 12.7 mph - -   Overcast
4:50 PM 59.0 °F 42.8 °F 55% 30.04 in 6.2 mi NW 10.4 mph - N/A   Overcast
5:00 PM 58 °F 43 °F 47% 30.06 in 16 mi NW 10.4 mph - -   Overcast
6:00 PM 59 °F 42 °F 43% 30.06 in 19 mi NW 15.0 mph - -   Scattered Clouds
6:50 PM 57.2 °F 41.0 °F 55% 30.04 in 6.2 mi NW 12.7 mph - N/A   Mostly Cloudy
7:00 PM 56 °F 41 °F 47% 30.05 in 25 mi NW 12.7 mph - -   Mostly Cloudy
7:50 PM 55.4 °F 41.0 °F 58% 30.04 in 6.2 mi NW 12.7 mph - N/A   Mostly Cloudy
8:00 PM 55 °F 41 °F 48% 30.06 in 25 mi NW 12.7 mph - -   Mostly Cloudy
8:50 PM 53.6 °F 41.0 °F 62% 30.06 in 6.2 mi North 12.7 mph - N/A   Mostly Cloudy
9:00 PM 54 °F 40 °F 49% 30.08 in 25 mi North 12.7 mph - -   Mostly Cloudy
9:50 PM 51.8 °F 41.0 °F 67% 30.06 in 6.2 mi NNW 8.1 mph - N/A   Mostly Cloudy
10:00 PM 52 °F 40 °F 54% 30.09 in 25 mi NNW 8.1 mph - -   Partly Cloudy
10:50 PM 51.8 °F 39.2 °F 62% 30.06 in - NW 6.9 mph - N/A   Clear
11:00 PM 52 °F 40 °F 52% 30.09 in 25 mi NW 6.9 mph - -   Scattered Clouds
11:50 PM 50.0 °F 39.2 °F 66% 30.06 in - WNW 9.2 mph - N/A   Clear